Date,TemperatureHighF,TemperatureAvgF,TemperatureLowF,DewpointHighF,DewpointAvgF,DewpointLowF,HumidityHigh,HumidityAvg,HumidityLow,PressureMaxIn,PressureMinIn,WindSpeedMaxMPH,WindSpeedAvgMPH,GustSpeedMaxMPH,PrecipitationSumIn
2014-1-1,45.2,33.0,24.2,29.9,25.6,21.1,95,77,42,30.45,30.20,17,2,18,0.00
2014-1-2,43.7,36.6,21.9,41.9,32.6,8.4,96,85,55,30.20,29.70,26,4,28,0.07
2014-1-3,30.6,21.7,14.9,11.1,4.9,-0.7,77,50,27,30.50,29.93,26,4,28,0.00
2014-1-4,37.5,26.7,13.0,30.5,18.7,9.4,90,73,39,30.54,30.33,15,2,21,0.00
2014-1-5,45.3,39.9,34.1,44.0,38.6,30.5,97,95,83,30.33,29.77,19,4,19,0.11
2014-1-6,43.1,26.3,5.1,41.0,13.6,-11.0,97,62,25,30.24,29.71,25,5,28,0.11
2014-1-7,23.5,10.6,-0.6,7.7,-2.6,-9.3,80,56,37,30.58,30.24,10,2,10,0.00
2014-1-8,47.3,24.6,8.6,19.1,12.2,5.7,89,64,24,30.69,30.53,15,1,16,0.00
2014-1-9,48.5,32.9,21.5,32.4,21.0,13.3,94,66,28,30.60,30.47,11,1,13,0.07
2014-1-10,47.2,40.0,33.5,45.8,38.8,32.2,98,96,92,30.51,30.10,4,0,5,0.80
2014-1-11,53.9,48.1,40.9,51.1,44.9,26.9,98,90,54,30.11,29.64,22,4,31,1.35
2014-1-12,55.4,41.3,28.3,33.2,28.5,22.8,93,64,33,30.19,29.83,19,2,21,0.00
2014-1-13,49.4,43.7,30.4,34.3,32.4,28.4,94,66,56,30.17,29.96,16,4,16,0.00
2014-1-14,56.7,47.1,28.5,39.7,31.8,23.1,92,58,30,29.99,29.82,15,3,15,0.00
2014-1-15,38.4,32.9,24.7,32.2,29.1,23.2,95,86,75,30.02,29.92,10,2,10,0.00
2014-1-16,41.7,32.3,17.1,31.5,18.6,10.7,91,60,30,30.10,29.95,19,3,19,0.00
2014-1-17,47.5,34.7,25.1,22.7,14.8,6.8,67,46,20,30.04,29.85,33,6,33,0.00
2014-1-18,39.9,28.3,17.0,11.6,7.8,-2.0,69,43,17,30.13,29.96,21,4,21,0.00
2014-1-19,50.7,36.3,25.4,22.4,16.7,9.4,78,47,25,30.05,29.96,20,4,20,0.00
2014-1-20,62.5,39.9,22.8,24.7,20.7,17.3,89,54,18,30.00,29.88,25,3,25,0.00
2014-1-21,48.9,32.8,20.1,30.1,21.3,7.4,86,65,32,29.92,29.62,22,3,22,0.00
2014-1-22,34.4,20.7,9.9,8.2,1.7,-6.8,72,47,18,30.15,29.91,18,4,20,0.00
2014-1-23,34.9,20.4,11.8,10.4,4.4,-5.3,80,52,26,30.50,30.15,18,2,18,0.00
2014-1-24,29.2,15.3,2.0,-2.8,-6.5,-13.6,66,40,18,30.67,30.31,18,4,19,0.00
2014-1-25,36.1,26.8,15.7,23.4,8.0,-4.9,64,46,27,30.30,29.78,32,8,32,0.00
2014-1-26,51.2,36.5,21.6,26.2,19.4,12.9,75,52,26,30.00,29.89,22,4,22,0.00
2014-1-27,56.4,40.9,24.2,34.4,25.5,4.0,73,55,34,30.09,29.84,25,4,25,0.00
2014-1-28,24.1,20.6,16.6,19.7,10.6,0.5,88,68,42,30.26,30.08,12,2,13,0.00
2014-1-29,28.7,17.5,8.5,12.3,3.9,-4.6,84,59,28,30.42,30.22,10,2,10,0.00
2014-1-30,39.1,19.7,1.4,12.6,5.6,-2.0,86,59,26,30.47,30.29,15,2,16,0.03
2014-1-31,56.4,31.2,13.0,23.0,14.9,9.7,87,59,16,30.32,30.19,16,1,16,0.04
2014-2-1,57.4,37.9,19.8,30.7,21.0,4.6,90,58,12,30.29,30.15,15,2,15,0.00
2014-2-2,65.5,47.7,26.3,50.6,38.2,24.3,95,72,52,30.17,29.98,18,3,19,0.06
2014-2-3,63.2,50.2,36.1,55.2,45.5,33.6,97,85,58,30.21,29.84,19,4,19,0.42
2014-2-4,40.3,38.4,35.8,38.6,35.8,33.7,97,90,82,30.33,30.09,8,1,8,0.28
2014-2-5,59.7,44.0,31.6,46.3,34.4,21.8,98,73,30,30.13,29.86,24,6,28,0.41
2014-2-6,38.9,31.1,24.7,25.7,21.6,18.5,80,68,51,30.35,30.12,12,2,17,0.00
2014-2-7,49.7,36.4,26.1,31.5,25.5,22.3,86,66,45,30.38,30.25,14,2,14,0.00
2014-2-8,52.6,38.3,29.6,33.4,28.9,24.2,91,70,42,30.29,30.12,17,2,17,0.00
2014-2-9,55.1,39.2,27.1,36.0,30.1,25.3,94,73,39,30.20,30.00,25,3,25,0.00
2014-2-10,35.6,32.5,28.3,32.4,30.2,26.4,95,91,84,30.24,30.07,9,1,9,0.16
2014-2-11,33.1,31.1,28.8,29.6,28.0,24.7,94,88,81,30.36,30.23,10,1,10,0.04
2014-2-12,29.8,24.8,21.6,26.5,21.1,14.0,96,86,63,30.39,29.89,15,2,15,0.00
2014-2-13,42.4,32.3,26.0,30.9,27.7,22.9,96,84,60,29.89,29.68,28,2,28,0.38
2014-2-14,56.4,36.7,18.8,33.6,25.3,16.9,94,68,24,29.91,29.71,20,4,22,0.04
2014-2-15,45.1,36.1,26.4,34.7,19.7,2.9,96,57,18,30.10,29.60,28,4,29,0.03
2014-2-16,56.2,38.9,25.0,27.2,23.3,17.9,85,57,28,30.19,30.05,18,3,18,0.00
2014-2-17,50.7,37.6,25.1,35.8,27.5,22.8,92,70,42,30.33,30.17,20,2,20,0.01
2014-2-18,63.6,45.0,28.3,35.1,31.4,24.8,96,64,25,30.26,30.08,16,2,16,0.00
2014-2-19,69.5,53.8,42.7,56.3,45.9,33.9,97,78,41,30.09,29.96,21,3,21,0.12
2014-2-20,62.1,54.7,43.5,55.7,50.3,41.2,95,85,74,30.12,29.90,15,3,16,0.00
2014-2-21,60.4,52.3,31.7,55.4,36.7,6.0,94,64,13,30.04,29.77,25,5,25,1.02
2014-2-22,63.2,43.3,30.2,30.5,23.2,12.5,86,54,15,30.24,30.04,15,2,15,0.00
2014-2-23,66.6,45.1,27.6,32.7,27.7,23.8,87,57,23,30.16,29.95,22,2,22,0.00
2014-2-24,54.8,40.2,29.7,34.9,28.1,18.3,92,65,30,30.18,29.98,15,2,15,0.00
2014-2-25,61.4,40.9,27.5,33.8,24.2,20.3,79,55,29,30.15,29.94,17,2,29,0.00
2014-2-26,45.8,34.8,25.3,23.8,20.0,16.5,70,56,36,29.99,29.78,16,2,17,0.00
2014-2-27,51.0,30.9,17.0,17.0,10.7,2.1,88,49,16,30.05,29.87,12,2,15,0.00
2014-2-28,50.3,31.9,16.5,17.4,11.8,5.9,81,48,18,30.32,30.05,14,1,14,0.00
2014-3-1,55.6,40.5,28.1,32.9,26.3,16.6,78,58,40,30.36,30.21,20,3,20,0.00
2014-3-2,71.1,52.7,30.1,46.8,38.9,27.5,91,63,41,30.26,29.95,24,4,26,0.00
2014-3-3,67.4,67.4,67.4,46.5,46.5,46.5,47,47,47,30.08,29.75,6,6,14,0.00
2014-3-4,67.4,54.6,0.0,46.5,38.1,23.1,74,52,46,30.19,30.04,14,4,14,0.00
2014-3-5,59.5,40.9,28.0,31.5,25.6,17.0,84,59,21,30.24,30.09,12,2,12,0.00
2014-3-6,39.6,33.8,29.3,33.2,23.3,14.0,95,68,40,30.31,30.10,11,2,17,0.23
2014-3-7,53.7,40.5,32.4,40.5,35.9,30.3,96,85,60,30.13,29.97,13,2,14,0.40
2014-3-8,68.0,46.3,28.6,41.0,31.3,23.8,97,65,20,30.18,30.02,21,2,22,0.01
2014-3-9,54.6,47.5,32.8,38.7,36.0,30.0,90,66,55,30.14,30.04,6,1,6,0.00
2014-3-10,74.0,58.1,42.1,41.2,37.3,27.8,74,48,19,30.14,29.78,13,2,14,0.00
2014-3-11,77.8,54.1,30.2,42.3,35.5,28.1,92,57,18,29.88,29.70,20,3,20,0.00
2014-3-12,70.2,54.7,34.4,56.5,42.9,19.2,95,67,42,29.74,29.32,33,7,33,0.04
2014-3-13,34.7,33.1,29.0,21.7,12.7,8.3,60,43,39,30.29,29.74,21,7,21,0.00
2014-3-14,58.1,41.6,34.5,32.2,15.8,13.2,50,36,19,30.35,30.06,25,7,26,0.00
2014-3-15,54.9,49.8,35.4,34.1,30.8,23.1,78,49,39,30.11,30.01,13,1,14,0.00
2014-3-16,54.9,54.9,54.9,32.8,32.8,32.8,43,43,43,30.08,29.66,1,1,3,0.00
2014-3-17,54.9,29.1,0.0,32.8,32.8,32.8,43,23,43,29.84,29.67,1,0,3,0.00
2014-3-18,0.0,0.0,0.0,32.8,32.8,32.8,0,0,100,30.08,29.78,0,0,0,0.00
2014-3-19,0.0,0.0,0.0,32.8,32.8,32.8,0,0,100,30.08,29.93,0,0,0,0.00
2014-3-20,63.4,35.5,0.0,42.7,28.6,17.1,98,37,18,30.19,29.94,14,2,14,0.00
2014-3-21,62.9,45.6,25.7,30.6,24.3,16.1,90,51,17,30.23,30.05,20,3,20,0.00
2014-3-22,70.5,53.9,37.3,40.0,34.0,27.8,90,51,26,30.11,29.96,21,3,21,0.00
2014-3-23,49.2,45.5,39.1,43.8,41.2,21.6,95,85,75,30.25,29.95,9,1,9,0.28
2014-3-24,53.3,43.1,25.9,43.6,27.3,17.6,86,57,31,30.28,29.91,17,2,18,0.02
2014-3-25,42.6,34.6,26.4,35.0,24.0,5.7,93,67,34,30.23,29.86,33,3,33,0.03
2014-3-26,34.1,29.0,21.0,16.9,8.3,5.5,62,42,31,30.44,30.11,8,2,15,0.00
2014-3-27,57.4,38.1,22.4,28.0,18.9,14.6,77,50,20,30.50,30.16,21,2,21,0.00
2014-3-28,52.6,49.9,40.2,51.4,46.6,26.6,97,89,55,30.30,29.94,17,4,19,0.22
2014-3-29,61.6,56.1,51.0,56.4,53.4,27.0,98,91,82,30.11,29.65,30,3,30,0.03
2014-3-30,60.4,46.3,34.5,55.2,25.9,15.2,83,48,21,30.18,29.76,28,5,30,0.03
2014-3-31,75.0,53.0,30.0,34.4,23.7,13.8,81,40,11,30.22,30.08,13,2,19,0.00
2014-4-1,80.4,59.0,40.4,38.5,34.8,30.0,74,46,17,30.16,29.99,18,2,18,0.00
2014-4-2,81.7,60.3,39.0,39.9,33.7,18.9,83,45,12,30.13,30.01,20,2,20,0.00
2014-4-3,80.0,65.0,51.1,53.0,44.2,30.4,62,48,21,30.07,29.87,23,4,27,0.00
2014-4-4,73.0,65.1,55.1,56.5,49.4,44.2,83,60,36,29.90,29.73,21,10,23,0.00
2014-4-5,72.3,55.3,41.1,46.6,36.5,27.6,88,52,28,30.06,29.86,18,5,21,0.00
2014-4-6,60.9,47.9,40.1,41.9,34.5,28.9,87,61,42,30.16,30.03,8,1,12,0.03
2014-4-7,53.5,47.2,42.7,52.7,45.8,41.0,97,95,87,30.07,29.70,10,2,10,2.85
2014-4-8,55.7,51.1,42.7,52.3,40.1,32.3,97,69,44,29.78,29.65,19,2,22,0.00
2014-4-9,64.3,49.0,35.1,40.6,31.6,18.3,92,58,18,30.16,29.78,17,2,18,0.00
2014-4-10,69.8,50.3,30.1,37.7,32.8,27.5,91,56,26,30.32,30.17,20,4,20,0.00
2014-4-11,71.8,57.0,40.7,39.8,36.7,33.6,82,49,25,30.25,30.09,20,4,21,0.00
2014-4-12,78.7,58.8,42.9,45.4,41.9,38.2,85,57,24,30.24,30.11,15,1,16,0.00
2014-4-13,75.0,62.3,47.5,52.9,49.3,43.6,88,64,41,30.16,30.04,19,4,19,0.00
2014-4-14,65.6,60.0,57.8,59.7,55.2,51.3,96,85,63,30.03,29.77,19,5,19,0.35
2014-4-15,59.2,49.1,33.5,58.2,43.5,20.4,97,82,55,30.04,29.64,31,6,32,0.58
2014-4-16,57.9,39.3,26.5,28.0,20.2,15.9,80,49,21,30.46,30.04,19,3,19,0.00
2014-4-17,63.1,43.9,27.0,30.5,25.7,14.7,93,56,16,30.56,30.40,13,2,13,0.00
2014-4-18,53.3,44.9,38.3,44.4,36.4,29.8,96,73,50,30.46,30.23,9,1,9,0.63
2014-4-19,55.7,48.1,45.1,50.0,45.9,43.7,97,92,76,30.26,30.13,20,2,20,0.85
2014-4-20,69.2,53.8,39.2,45.2,37.1,26.8,98,61,21,30.32,30.18,16,2,16,0.00
2014-4-21,79.0,56.5,33.8,47.1,38.8,31.9,94,58,22,30.23,29.97,16,2,16,0.00
2014-4-22,67.4,57.2,47.3,57.6,50.5,43.0,94,79,52,29.97,29.75,5,0,5,0.06
2014-4-23,74.2,55.9,41.4,49.3,35.0,20.9,97,55,14,30.00,29.80,14,3,14,0.01
2014-4-24,61.0,50.9,35.7,39.4,32.0,28.9,84,52,33,30.15,29.98,6,0,6,0.00
2014-4-25,72.8,60.5,48.0,56.3,46.5,38.4,88,62,40,30.02,29.77,18,5,27,0.00
2014-4-26,77.3,62.3,42.1,44.3,39.6,28.7,88,48,19,30.06,29.91,20,3,21,0.00
2014-4-27,72.4,61.5,43.2,56.2,45.2,40.2,90,58,39,30.04,29.91,11,0,11,0.00
2014-4-28,77.5,66.8,56.0,62.2,58.0,54.1,95,75,46,30.00,29.80,20,5,20,0.01
2014-4-29,70.8,67.0,61.8,63.7,60.1,57.6,94,79,66,29.91,29.73,29,10,29,0.17
2014-4-30,69.7,63.3,59.8,59.7,58.6,55.3,94,85,61,29.93,29.81,25,7,28,0.09
2014-5-1,74.4,59.1,46.8,58.9,43.7,18.3,97,65,14,29.89,29.80,20,3,20,0.00
2014-5-2,69.8,55.0,42.8,42.0,38.2,30.1,88,58,24,29.99,29.83,20,2,20,0.00
2014-5-3,75.3,57.6,38.6,42.6,38.0,33.1,94,55,23,30.00,29.89,14,2,17,0.00
2014-5-4,85.4,64.2,42.7,47.2,41.4,35.3,89,51,18,30.06,29.91,21,2,25,0.00
2014-5-5,88.2,69.8,49.3,54.2,43.3,29.9,87,47,14,30.00,29.82,26,3,26,0.00
2014-5-6,87.2,69.8,49.5,52.1,47.2,27.6,88,50,14,29.95,29.83,23,3,23,0.00
2014-5-7,83.6,67.3,46.9,53.3,49.7,43.0,94,59,24,30.11,29.95,19,3,23,0.00
2014-5-8,83.5,67.0,47.7,55.3,50.4,45.5,93,60,35,30.20,30.10,21,2,22,0.00
2014-5-9,73.0,63.2,54.8,61.6,56.9,52.3,96,81,59,30.16,30.05,26,3,26,0.25
2014-5-10,71.4,63.4,55.9,62.6,59.4,55.1,98,87,73,30.10,30.01,20,2,20,0.00
2014-5-11,83.3,67.3,50.2,62.1,55.9,44.1,97,71,37,30.18,30.08,10,2,10,0.00
2014-5-12,85.3,70.0,55.0,64.7,60.3,48.5,98,74,46,30.21,30.12,14,3,15,0.00
2014-5-13,84.8,70.8,57.6,65.8,60.3,55.8,97,73,38,30.17,30.06,21,3,21,0.00
2014-5-14,79.9,69.3,57.4,62.3,58.7,53.8,96,72,43,30.12,29.96,31,3,31,0.37
2014-5-15,68.8,60.5,46.6,64.1,58.1,44.3,96,92,82,29.96,29.81,21,4,22,1.03
2014-5-16,63.7,50.8,37.9,44.5,37.9,32.5,95,65,33,30.13,29.92,26,4,28,0.00
2014-5-17,62.4,49.4,33.9,47.1,39.5,32.4,95,72,46,30.25,30.11,16,3,18,0.00
2014-5-18,55.9,50.3,46.1,50.2,47.2,43.7,96,89,77,30.27,30.20,7,1,7,0.17
2014-5-19,70.3,55.7,43.9,50.6,47.1,43.1,97,76,44,30.34,30.22,14,2,14,0.01
2014-5-20,75.0,61.4,43.8,60.4,53.0,42.7,97,76,54,30.30,30.11,22,4,22,0.00
2014-5-21,85.4,65.8,50.2,58.3,52.9,43.1,97,69,24,30.15,30.00,20,2,21,0.00
2014-5-22,88.5,71.9,57.0,61.9,56.8,52.6,88,61,38,30.08,29.89,16,2,18,0.00
2014-5-23,85.5,72.9,57.2,63.1,58.8,54.3,92,64,36,30.06,29.94,14,2,15,0.00
2014-5-24,77.5,64.5,54.2,64.6,56.7,52.7,95,78,55,30.12,30.01,7,1,8,0.02
2014-5-25,77.8,62.3,51.3,64.9,57.5,49.8,97,86,54,30.19,30.12,12,1,13,1.30
2014-5-26,82.3,64.0,54.9,66.0,60.2,54.3,98,88,48,30.21,30.10,25,1,25,0.39
2014-5-27,84.0,69.4,59.6,66.9,61.5,53.5,98,79,36,30.15,29.99,19,2,21,0.00
2014-5-28,85.5,68.1,55.8,64.4,59.7,55.2,98,78,40,30.07,29.97,20,2,21,0.01
2014-5-29,79.8,68.5,58.9,63.8,61.0,58.1,98,80,48,30.09,30.00,21,1,23,0.03
2014-5-30,81.8,70.0,61.8,66.2,62.6,52.0,97,80,52,30.09,30.03,13,1,13,0.00
2014-5-31,75.5,67.3,60.2,66.0,62.4,59.3,98,85,70,30.17,30.08,13,2,13,0.00
2014-6-1,74.0,65.7,60.4,61.9,59.4,56.0,93,81,59,30.27,30.16,7,1,7,0.05
2014-6-2,76.7,63.8,55.8,58.3,55.9,53.4,97,77,51,30.26,30.13,12,2,12,0.05
2014-6-3,79.5,65.7,52.4,66.3,58.6,50.9,96,79,58,30.17,30.00,10,1,10,0.00
2014-6-4,84.8,69.5,58.6,67.2,62.5,58.0,98,80,49,30.02,29.81,16,2,17,0.00
2014-6-5,87.0,76.9,66.0,65.4,62.8,51.1,96,64,41,29.83,29.74,16,3,18,0.02
2014-6-6,81.3,69.0,63.3,68.5,64.7,62.4,98,87,62,29.94,29.82,12,1,12,0.39
2014-6-7,81.3,68.8,59.9,68.8,64.3,59.3,98,87,59,30.00,29.91,21,1,21,2.01
2014-6-8,83.2,71.3,62.3,67.3,63.9,57.9,97,80,44,29.96,29.82,20,3,20,0.23
2014-6-9,84.0,69.7,56.7,67.1,61.3,56.0,98,77,49,29.93,29.84,19,2,19,0.00
2014-6-10,85.4,73.9,61.5,66.3,62.7,48.7,96,70,50,29.95,29.87,19,4,19,0.00
2014-6-11,79.8,68.5,61.2,65.7,62.5,59.8,97,83,53,29.94,29.79,18,3,18,0.35
2014-6-12,80.3,68.3,61.6,64.7,62.4,59.6,97,83,51,29.90,29.80,12,2,13,0.10
2014-6-13,83.2,66.9,59.1,65.9,60.7,56.8,97,83,42,29.94,29.83,16,2,17,0.72
2014-6-14,82.6,68.1,58.0,67.1,61.7,57.4,98,82,53,30.07,29.94,8,1,8,0.00
2014-6-15,84.4,73.3,61.1,66.0,63.4,50.9,98,74,49,30.16,30.07,13,2,13,0.00
2014-6-16,87.8,71.6,63.9,69.7,65.8,62.4,96,84,47,30.21,30.11,10,1,10,0.10
2014-6-17,84.3,73.6,61.2,72.3,66.0,60.3,98,79,61,30.20,30.10,6,1,6,0.00
2014-6-18,88.5,75.0,66.4,68.3,65.4,58.6,95,73,47,30.16,30.08,14,2,15,0.00
2014-6-19,89.5,71.8,61.5,69.3,64.7,60.6,98,81,45,30.14,30.03,13,1,13,0.10
2014-6-20,85.4,68.9,59.9,71.2,64.5,59.3,98,87,57,30.10,29.96,8,1,15,0.42
2014-6-21,83.8,72.1,62.0,69.6,64.7,60.9,98,80,49,29.98,29.84,12,1,12,0.00
2014-6-22,88.0,73.8,60.3,66.1,60.3,51.2,97,68,33,29.95,29.83,12,2,12,0.00
2014-6-23,81.5,71.6,64.3,68.2,64.7,61.0,96,80,62,30.09,29.94,16,2,16,1.11
2014-6-24,80.3,70.0,64.7,68.1,66.1,63.8,97,88,66,30.09,29.98,13,1,13,0.11
2014-6-25,87.0,75.3,61.9,67.6,64.0,60.6,98,72,44,30.01,29.93,17,2,17,0.01
2014-6-26,86.0,72.6,61.0,67.9,63.2,58.6,97,75,43,30.04,29.93,12,1,12,0.00
2014-6-27,85.1,71.8,65.9,69.5,65.8,62.1,96,82,51,30.09,29.96,10,1,10,0.03
2014-6-28,78.3,69.2,65.5,68.7,66.5,64.2,97,92,69,30.20,30.08,10,1,10,2.07
2014-6-29,84.0,70.9,65.2,71.0,67.2,64.0,98,89,56,30.22,30.11,8,1,9,0.05
2014-6-30,78.7,68.7,61.3,68.5,65.0,60.7,98,89,66,30.12,29.98,9,1,10,0.02
2014-7-1,88.3,54.5,0.0,70.9,67.2,64.0,98,58,54,30.00,29.88,13,2,13,0.00
2014-7-2,89.3,74.3,64.1,69.4,66.9,62.3,98,80,51,29.97,29.90,14,1,14,0.10
2014-7-3,86.8,73.5,65.0,69.7,64.9,55.3,98,77,50,29.99,29.87,14,2,14,0.01
2014-7-4,80.6,70.4,60.4,56.4,53.2,47.6,78,57,33,30.19,29.98,16,3,16,0.00
2014-7-5,83.0,68.1,52.8,58.1,53.6,43.3,91,63,39,30.29,30.18,10,2,10,0.00
2014-7-6,83.0,68.2,52.9,61.5,56.8,51.4,95,71,37,30.20,30.03,13,2,13,0.00
2014-7-7,84.8,70.7,59.4,67.8,63.2,57.8,95,79,48,30.07,29.93,17,2,19,0.03
2014-7-8,87.2,71.6,56.8,67.0,62.4,55.4,96,76,43,30.03,29.93,19,3,19,0.20
2014-7-9,84.3,73.9,66.0,68.3,65.1,60.3,94,76,46,30.03,29.92,14,2,14,0.10
2014-7-10,81.9,69.3,64.3,67.8,65.1,63.0,97,87,63,30.12,29.98,16,2,16,0.28
2014-7-11,82.8,70.5,64.4,71.1,66.4,63.4,98,88,61,30.20,30.09,8,1,8,0.00
2014-7-12,86.5,81.1,66.2,69.9,65.3,61.1,98,60,44,30.21,30.12,12,3,14,0.00
2014-7-13,84.2,78.9,65.1,70.2,66.8,49.5,96,68,56,30.14,29.99,13,3,13,0.00
2014-7-14,87.3,74.8,63.7,71.0,67.3,61.4,97,79,55,30.01,29.88,18,3,18,0.00
2014-7-15,85.2,72.8,64.5,69.4,65.5,62.1,96,80,48,29.89,29.74,16,2,16,0.10
2014-7-16,78.5,67.3,55.7,62.5,57.4,53.8,98,73,47,29.95,29.81,13,2,13,0.00
2014-7-17,79.2,67.1,56.6,61.9,56.2,52.5,91,70,47,30.08,29.95,11,2,11,0.00
2014-7-18,69.0,64.2,60.2,66.6,62.3,57.2,97,93,86,30.15,30.08,5,1,5,0.64
2014-7-19,65.0,62.7,60.2,63.1,61.2,59.6,98,95,90,30.14,30.08,5,1,5,0.71
2014-7-20,82.5,68.9,59.5,68.8,63.4,58.4,98,84,62,30.13,30.02,16,3,16,0.01
2014-7-21,76.2,72.8,67.1,68.1,67.2,58.2,96,83,73,30.12,30.04,8,2,10,0.00
2014-7-22,81.1,71.0,65.7,70.3,67.3,64.8,98,89,66,30.15,30.06,10,1,10,0.32
2014-7-23,81.5,72.2,63.9,70.8,67.2,63.1,99,86,66,30.11,29.93,6,1,6,0.02
2014-7-24,82.5,71.9,66.4,70.1,67.6,65.0,100,87,65,29.96,29.85,17,1,17,0.01
2014-7-25,83.5,73.0,62.9,67.2,64.7,61.2,96,77,51,30.05,29.94,14,2,15,0.00
2014-7-26,86.2,76.0,63.0,67.8,65.1,62.3,98,70,49,30.03,29.95,12,2,12,0.00
2014-7-27,88.9,74.8,65.5,72.4,67.1,62.0,95,79,48,30.00,29.82,19,2,19,0.07
2014-7-28,85.8,72.5,62.1,67.6,60.2,50.0,98,70,31,29.91,29.79,18,2,18,0.03
2014-7-29,79.0,67.8,55.4,58.5,55.6,52.2,94,67,41,30.03,29.89,8,1,9,0.00
2014-7-30,79.8,72.3,51.8,57.0,55.4,35.3,92,56,42,30.07,30.01,11,2,11,0.00
2014-7-31,75.3,68.2,58.3,61.9,58.9,41.2,95,74,53,30.13,30.06,6,2,8,0.14
2014-8-1,71.4,64.3,60.3,62.3,60.8,59.2,97,89,72,30.13,30.06,15,1,15,0.02
2014-8-2,74.8,67.4,62.0,66.3,63.3,59.6,96,87,71,30.12,30.05,9,1,9,0.04
2014-8-3,83.0,70.5,61.1,66.3,62.2,58.6,98,78,46,30.11,30.01,14,1,14,0.00
2014-8-4,81.2,67.2,62.4,67.3,62.9,59.5,98,87,57,30.08,30.01,22,1,22,1.52
2014-8-5,84.8,69.6,59.7,68.4,63.8,59.0,99,84,48,30.09,29.99,14,1,14,0.09
2014-8-6,86.8,70.2,58.3,66.8,62.3,56.9,98,78,43,30.05,29.95,11,1,11,0.00
2014-8-7,87.4,76.7,61.8,68.1,64.2,48.3,98,68,44,30.03,29.91,9,1,9,0.00
2014-8-8,75.3,67.2,62.9,67.9,64.8,61.2,97,92,74,30.11,29.99,7,1,8,0.97
2014-8-9,80.3,68.3,0.0,71.7,68.8,65.2,98,73,74,30.05,29.95,5,1,5,0.00
2014-8-10,79.5,72.4,64.0,70.9,67.3,56.3,98,85,75,30.07,29.98,7,0,7,0.03
2014-8-11,79.9,72.9,64.9,69.9,67.5,64.3,98,84,70,30.07,29.91,14,2,15,0.00
2014-8-12,87.5,79.0,65.4,70.1,66.9,56.4,98,68,44,29.94,29.73,17,3,17,0.00
2014-8-13,80.0,69.1,56.7,65.3,57.5,52.3,96,69,42,30.01,29.82,14,2,15,0.00
2014-8-14,81.8,68.0,53.5,63.6,58.8,52.1,97,75,47,30.07,29.96,12,1,12,0.00
2014-8-15,83.2,76.4,59.5,63.8,62.3,48.1,98,63,48,30.04,29.94,8,2,8,0.00
2014-8-16,83.8,75.3,61.1,67.8,64.4,60.2,97,71,46,30.05,29.96,8,1,11,0.00
2014-8-17,86.0,73.2,61.6,70.0,64.4,59.3,98,77,43,30.02,29.91,15,2,15,0.00
2014-8-18,84.7,72.6,65.7,69.1,66.5,62.3,96,83,50,29.94,29.79,15,2,15,0.01
2014-8-19,84.5,72.6,62.5,71.2,65.7,61.1,97,81,55,29.90,29.81,8,1,8,0.00
2014-8-20,88.0,71.8,64.6,73.4,66.8,62.1,100,86,51,30.09,29.90,33,2,38,0.26
2014-8-21,88.7,70.4,59.2,72.5,65.3,58.2,98,86,52,30.12,30.04,17,1,17,0.78
2014-8-22,91.8,74.4,63.9,72.8,68.5,62.6,99,83,47,30.10,29.97,11,2,11,0.23
2014-8-23,90.2,80.9,65.1,72.8,70.4,58.7,99,72,45,30.02,29.87,15,3,15,0.00
2014-8-24,83.9,76.4,67.4,70.4,67.9,57.7,92,76,64,30.08,29.90,14,3,14,0.00
2014-8-25,77.7,70.2,63.9,63.6,61.6,59.5,92,75,60,30.14,30.03,15,3,15,0.00
2014-8-26,83.2,73.7,54.7,66.5,61.3,42.9,98,67,42,30.15,30.02,13,3,14,0.00
2014-8-27,85.7,68.7,54.2,66.2,58.9,52.6,98,75,36,30.12,29.99,13,1,13,0.00
2014-8-28,89.1,71.4,57.1,68.0,61.8,55.6,98,76,39,30.06,29.96,10,1,11,0.00
2014-8-29,88.5,73.0,59.8,69.0,63.9,58.7,97,77,41,30.11,30.02,12,1,12,0.00
2014-8-30,81.8,71.4,62.0,71.0,66.5,60.8,98,86,62,30.17,30.08,9,1,10,0.00
2014-8-31,81.4,72.8,67.1,71.1,68.5,65.9,98,87,68,30.15,30.06,13,2,14,0.16
2014-9-1,84.3,72.3,64.6,71.0,66.5,63.1,97,83,63,30.12,30.04,21,1,21,0.01
2014-9-2,89.5,79.6,64.2,71.6,67.8,54.2,98,69,46,30.11,29.90,17,4,18,0.54
2014-9-3,90.5,73.0,64.1,70.8,66.4,63.2,98,82,45,30.08,29.95,12,1,14,1.67
2014-9-4,82.3,73.0,65.7,70.3,67.9,64.7,98,85,65,30.18,30.06,9,2,9,1.67
2014-9-5,84.7,74.1,67.7,70.5,68.6,66.7,97,84,59,30.19,30.05,6,1,7,0.00
2014-9-6,87.3,71.5,66.1,70.4,67.6,64.5,98,89,48,30.08,29.95,12,1,12,0.90
2014-9-7,84.7,71.5,63.7,68.6,65.9,62.3,98,85,53,30.05,29.94,11,1,11,0.42
2014-9-8,69.3,67.6,65.2,68.0,65.0,61.3,100,92,84,30.12,30.00,9,2,10,0.07
2014-9-9,81.8,70.1,64.2,68.2,64.5,61.9,95,83,61,30.13,30.02,14,2,15,0.00
2014-9-10,77.8,69.4,64.6,66.2,64.5,62.3,96,85,61,30.11,30.00,12,2,12,0.00
2014-9-11,83.3,72.7,66.5,72.6,67.8,64.7,95,85,67,30.03,29.95,13,3,14,0.00
2014-9-12,85.8,72.1,65.3,72.1,68.3,64.4,100,89,62,30.05,29.96,12,1,12,0.01
2014-9-13,81.0,71.4,66.7,70.4,67.3,61.6,96,87,69,30.14,29.98,11,2,11,0.00
2014-9-14,68.7,64.6,60.0,62.9,60.8,57.6,97,88,76,30.23,30.12,9,2,9,0.00
2014-9-15,80.3,65.7,59.6,68.0,62.6,58.5,98,91,64,30.21,30.08,14,2,18,0.38
2014-9-16,78.3,69.5,63.3,70.8,65.2,62.7,98,87,70,30.11,29.92,7,1,7,0.38
2014-9-17,76.8,66.9,62.4,63.9,62.3,59.9,97,86,62,29.95,29.86,13,1,17,0.00
2014-9-18,76.1,67.1,59.8,61.2,59.9,58.3,98,79,56,30.03,29.90,8,1,9,0.00
2014-9-19,75.2,68.3,61.6,62.6,61.0,51.4,93,78,64,30.19,30.02,10,2,13,0.00
2014-9-20,78.6,65.9,57.4,61.3,57.9,53.0,96,78,44,30.20,30.01,10,1,10,0.02
2014-9-21,82.4,66.3,53.0,64.9,58.8,52.5,98,80,48,30.05,29.85,14,2,17,0.00
2014-9-22,74.8,62.3,51.8,62.9,52.6,46.1,96,73,39,30.15,29.90,14,2,14,0.01
2014-9-23,66.6,55.7,46.9,54.2,50.0,45.5,96,82,62,30.30,30.15,14,2,15,0.00
2014-9-24,71.3,58.8,48.2,57.4,47.8,38.8,97,72,34,30.34,30.25,12,2,14,0.02
2014-9-25,73.1,63.8,58.0,62.3,59.4,56.8,97,86,68,30.26,30.14,12,2,12,0.01
2014-9-26,67.5,64.1,61.4,61.0,59.7,58.2,93,86,77,30.20,30.13,11,2,11,0.00
2014-9-27,74.6,64.6,61.4,66.8,58.1,56.8,89,80,55,30.22,30.12,6,1,9,0.00
2014-9-28,76.5,64.4,55.8,63.3,58.2,53.0,95,82,52,30.19,30.06,6,0,9,0.00
2014-9-29,70.5,62.4,58.8,63.7,60.6,58.0,98,94,77,30.07,29.94,8,1,9,0.15
2014-9-30,80.6,64.2,56.3,63.9,58.4,55.0,99,84,45,29.99,29.86,8,1,10,0.01
2014-10-1,78.3,67.2,55.5,63.1,58.6,54.7,98,77,54,30.04,29.93,14,2,15,0.00
2014-10-2,80.7,71.5,52.8,62.7,58.8,39.3,98,67,34,30.11,29.98,13,2,14,0.00
2014-10-3,71.3,63.4,56.9,66.5,61.0,55.8,97,92,83,30.02,29.78,16,3,16,0.69
2014-10-4,61.4,52.4,37.9,57.0,39.5,28.1,96,66,29,29.95,29.76,16,2,18,0.00
2014-10-5,64.5,45.5,30.8,42.8,34.9,28.1,98,72,27,30.07,29.93,16,2,18,0.00
2014-10-6,63.2,53.5,39.1,48.0,44.3,37.4,96,73,56,30.10,30.00,15,5,18,0.00
2014-10-7,65.5,62.4,52.6,57.8,53.6,39.5,98,74,61,30.13,29.99,17,5,18,0.06
2014-10-8,80.8,66.0,54.6,61.4,56.0,46.5,94,72,33,30.08,29.98,17,2,17,0.00
2014-10-9,78.1,62.0,48.5,56.0,52.3,47.1,96,75,43,30.17,30.08,14,3,14,0.00
2014-10-10,77.5,73.0,61.0,65.8,61.8,40.1,97,71,48,30.15,29.93,23,6,24,0.00
2014-10-11,79.3,69.6,61.6,66.5,61.9,59.2,96,78,53,30.04,29.92,14,4,15,0.01
2014-10-12,74.6,64.0,54.3,60.7,58.4,47.3,98,84,62,30.22,30.00,8,3,8,0.09
2014-10-13,70.5,60.2,53.7,64.2,58.0,52.7,98,93,75,30.23,30.07,14,1,14,0.06
2014-10-14,67.6,64.3,55.9,64.9,61.7,53.3,97,91,80,30.07,29.68,30,6,30,2.51
2014-10-15,65.4,52.4,44.2,54.0,48.0,43.8,99,87,53,29.87,29.80,19,2,19,0.01
2014-10-16,63.2,51.2,44.1,50.3,48.3,43.1,100,91,61,29.95,29.78,10,1,10,0.03
2014-10-17,74.4,54.6,41.2,55.8,47.3,40.7,99,80,37,30.00,29.85,20,2,20,0.00
2014-10-18,66.7,56.7,48.3,52.9,48.8,40.6,96,76,52,29.99,29.80,18,2,18,0.00
2014-10-19,69.9,53.9,45.5,49.5,41.5,32.6,95,66,27,30.16,29.98,20,2,20,0.00
2014-10-20,66.3,52.0,38.8,52.7,46.1,37.9,98,82,57,30.14,29.98,17,3,17,0.02
2014-10-21,71.3,53.2,40.5,51.6,43.5,37.1,100,74,41,30.01,29.87,16,2,17,0.00
2014-10-22,61.4,48.0,39.9,38.9,35.8,33.2,86,64,38,30.15,30.01,12,4,17,0.00
2014-10-23,70.2,48.6,32.7,39.9,34.4,25.1,95,66,19,30.18,30.02,16,1,16,0.00
2014-10-24,67.2,48.9,36.7,42.7,37.4,27.9,96,70,24,30.12,30.00,7,1,7,0.00
2014-10-25,73.2,50.4,33.5,47.7,38.3,31.6,96,71,23,30.12,29.98,10,1,11,0.00
2014-10-26,79.0,56.6,39.9,54.4,43.2,38.0,96,68,24,30.04,29.92,11,1,12,0.00
2014-10-27,78.3,56.4,40.1,52.8,45.2,38.3,95,71,31,30.15,30.04,12,1,13,0.00
2014-10-28,75.3,55.3,43.5,54.9,49.0,42.1,97,81,44,30.16,30.06,20,1,20,0.00
2014-10-29,59.7,53.6,44.9,55.5,49.4,38.7,94,86,76,30.06,29.93,12,1,12,0.01
2014-10-30,64.8,47.8,33.6,40.9,36.2,31.0,96,69,30,30.12,29.97,11,1,11,0.00
2014-10-31,55.2,41.3,33.3,42.3,36.9,28.3,97,85,48,30.01,29.82,18,1,18,0.00
2014-11-1,42.9,37.4,33.5,29.7,27.2,23.2,78,67,58,30.17,29.79,27,5,27,0.00
2014-11-2,50.6,38.0,28.4,23.7,19.8,11.9,76,51,24,30.45,30.16,20,3,22,0.00
2014-11-3,68.7,42.2,23.3,31.8,23.6,9.9,87,57,12,30.54,30.39,13,1,13,0.00
2014-11-4,69.0,49.3,32.5,34.9,29.8,21.8,88,54,17,30.41,30.24,17,3,20,0.00
2014-11-5,62.5,54.4,45.6,50.5,40.6,25.3,86,61,40,30.28,30.13,14,3,14,0.00
2014-11-6,67.5,56.7,43.7,57.0,42.8,26.1,94,64,29,30.14,29.79,30,6,30,0.00
2014-11-7,56.6,45.0,32.1,34.2,30.6,26.6,88,58,35,30.08,29.93,23,3,23,0.00
2014-11-8,55.4,40.6,27.6,37.1,32.4,25.5,93,75,47,30.10,29.97,20,2,20,0.00
2014-11-9,65.0,44.6,30.0,39.8,35.1,28.4,96,74,35,30.08,29.94,12,1,12,0.00
2014-11-10,64.6,45.7,31.2,43.1,36.8,29.5,95,75,41,30.14,30.06,17,1,17,0.00
2014-11-11,70.8,42.1,29.7,65.8,34.4,28.1,96,79,21,30.12,29.97,12,1,12,0.00
2014-11-12,68.3,50.1,37.4,51.4,42.5,33.8,93,77,53,30.08,29.96,12,2,12,0.00
2014-11-13,50.0,41.8,31.3,42.8,37.8,26.6,96,86,73,30.10,29.97,10,3,14,0.00
2014-11-14,37.8,29.4,21.3,26.5,19.1,14.5,83,66,45,30.37,30.09,14,4,17,0.00
2014-11-15,44.1,28.9,19.0,21.0,17.2,12.9,86,64,36,30.50,30.36,12,1,13,0.00
2014-11-16,54.4,41.4,29.6,39.7,29.2,19.6,95,64,40,30.40,30.04,19,3,19,0.11
2014-11-17,54.7,41.1,27.0,51.6,39.1,19.5,97,93,74,30.04,29.66,17,3,19,0.19
2014-11-18,33.9,23.7,14.6,19.4,10.8,5.3,84,59,37,30.38,29.97,14,2,14,0.00
2014-11-19,40.9,25.2,11.0,18.5,12.4,7.7,88,62,30,30.46,30.29,15,2,17,0.00
2014-11-20,54.7,41.0,27.9,28.6,20.8,14.4,72,48,21,30.29,30.13,25,4,26,0.00
2014-11-21,53.7,36.3,26.3,25.4,21.4,14.7,77,58,24,30.56,30.23,10,1,11,0.00
2014-11-22,54.7,38.4,22.7,28.9,22.3,17.9,88,56,27,30.58,30.33,18,2,18,0.00
2014-11-23,52.6,45.6,40.3,51.7,38.6,23.1,98,79,47,30.34,29.74,23,2,28,3.02
2014-11-24,66.9,54.8,47.8,56.4,50.9,43.9,97,87,66,29.91,29.72,17,8,20,0.00
2014-11-25,54.4,46.2,42.2,44.5,37.0,28.9,95,72,40,30.11,29.91,8,1,8,0.01
2014-11-26,53.7,42.9,34.0,41.4,35.6,15.5,96,78,25,30.07,29.91,17,1,17,0.21
2014-11-27,41.5,36.4,28.5,31.7,25.8,18.8,83,66,45,30.34,29.97,18,3,18,0.00
2014-11-28,47.5,31.7,22.9,22.9,18.0,11.1,84,59,27,30.43,30.31,11,1,12,0.00
2014-11-29,53.6,40.6,26.0,31.3,26.0,20.9,86,58,36,30.33,30.23,20,3,20,0.00
2014-11-30,64.7,51.5,40.9,48.3,40.0,30.0,95,66,53,30.34,30.21,22,5,22,0.00
2014-12-1,68.2,51.9,39.1,50.8,44.3,36.9,96,78,48,30.40,30.27,16,2,17,0.00
2014-12-2,61.7,50.5,41.3,53.2,46.4,40.1,99,87,69,30.35,30.24,16,2,16,0.00
2014-12-3,65.5,52.8,45.5,51.7,47.0,42.1,96,82,51,30.30,30.19,22,3,22,0.00
2014-12-4,58.9,52.5,42.2,48.1,45.5,40.6,95,78,67,30.37,30.25,5,1,5,0.00
2014-12-5,58.9,52.5,45.9,49.5,47.4,35.5,96,84,67,30.43,30.32,11,2,11,0.00
2014-12-6,54.7,48.6,43.7,51.6,46.4,37.8,100,92,75,30.33,30.05,19,4,22,0.11
2014-12-7,53.4,41.6,34.0,38.1,30.3,20.4,81,66,30,30.43,30.19,18,2,18,0.00
2014-12-8,37.9,35.6,32.8,34.9,25.7,15.7,96,69,45,30.45,30.21,10,2,10,0.00
2014-12-9,42.3,36.9,31.1,36.2,31.5,26.6,97,82,61,30.21,30.05,19,2,21,0.00
2014-12-10,45.9,36.4,26.3,27.9,25.9,22.1,86,66,46,30.15,30.06,21,4,21,0.00
2014-12-11,49.4,31.6,21.3,26.2,16.9,-8.1,92,63,10,30.26,30.07,12,1,13,0.00
2014-12-12,54.7,33.3,20.3,24.1,18.3,13.1,89,60,20,30.39,30.25,8,1,9,0.00
2014-12-13,61.0,36.4,21.2,25.5,20.0,16.3,85,58,19,30.31,30.15,9,1,12,0.00
2014-12-14,50.7,39.6,22.5,28.2,23.9,18.3,90,57,39,30.19,30.06,5,2,6,0.00
2014-12-15,50.7,21.6,0.0,26.6,26.6,26.6,39,17,39,30.17,29.96,4,2,4,0.00
2014-12-16,0.0,0.0,0.0,26.6,26.6,26.6,0,0,100,30.02,29.79,0,0,0,0.00
2014-12-17,0.0,0.0,0.0,26.6,26.6,26.6,0,0,100,30.12,30.00,0,0,0,0.00
2014-12-18,0.0,0.0,0.0,26.6,26.6,26.6,0,0,100,30.13,29.98,0,0,0,0.00
2014-12-19,0.0,0.0,0.0,26.6,26.6,26.6,0,0,100,30.12,30.02,0,0,0,0.00
2014-12-20,0.0,0.0,0.0,26.6,26.6,26.6,0,0,100,30.17,30.09,0,0,0,0.00
2014-12-21,0.0,0.0,0.0,26.6,26.6,26.6,0,0,100,30.18,30.07,0,0,0,0.00
2014-12-22,0.0,0.0,0.0,26.6,26.6,26.6,0,0,100,30.10,29.91,0,0,0,0.00
2014-12-23,49.7,23.8,0.0,49.1,36.4,26.6,99,50,95,29.99,29.86,7,0,7,1.05
2014-12-24,52.9,48.9,45.2,52.4,48.0,39.0,99,97,73,29.90,29.65,15,2,16,0.52
2014-12-25,51.7,40.9,28.3,40.6,33.8,27.3,97,78,47,30.30,29.73,9,1,10,0.00
2014-12-26,58.8,38.0,23.5,37.6,30.0,22.3,97,78,29,30.42,30.28,12,1,12,0.00
2014-12-27,62.9,46.0,31.5,37.9,32.6,18.6,95,66,21,30.38,30.21,19,2,19,0.00
2014-12-28,65.0,52.5,48.0,55.7,48.0,35.6,96,85,56,30.21,29.97,21,3,21,0.07
2014-12-29,58.4,51.2,47.1,50.9,48.7,46.0,98,91,75,30.11,30.01,12,1,12,0.36
2014-12-30,47.1,40.4,34.2,46.0,38.2,29.3,96,92,81,30.44,30.08,11,2,12,0.01
2014-12-31,36.8,34.9,31.0,30.5,29.2,26.8,86,80,77,30.49,30.37,7,2,7,0.01
2015-1-1,36.8,26.4,0.0,30.3,30.3,30.3,77,55,77,30.40,30.13,2,1,6,0.00
2015-1-2,0.0,0.0,0.0,30.3,30.3,30.3,0,0,100,30.30,30.17,0,0,0,0.00